Terminal Aerodrome Forecast
Issued by NWS Portland, ME

Home | Current Version | Previous Version | Text Only | Print | Product List | Glossary On
Versions: 1 2 3 4 5 6 7 8 9 10 11 12 13 14 15 16 17 18 19
538
FTUS41 KGYX 290527
TAFPWM
TAF
KPWM 290527Z 2906/3006 02009KT P6SM SCT250
     FM291500 12007KT P6SM BKN200
     FM291900 18009KT P6SM BKN100=

USA.gov is the U.S. government's official web portal to all federal, state and local government web resources and services.